{"data":{"norad_id":59696,"intl_designator":"2024-086Q","name":"STARLINK-32094","alt_names":[],"object_type":"PAYLOAD","status":"ACTIVE","operator":null,"country":"US","launch_date":"2024-05-08","launch_site_code":"AFETR","launch_vehicle":null,"mission":null,"orbit_class":"UNKNOWN","rcs_meters":null,"size_class":null,"mass_kg":null,"dimensions":null,"purposes":["comms"],"wikipedia_slug":null,"has_3d_model":false,"image_url":null,"decayed_at":null,"tle_current":{"epoch":"2026-09-21T16:27:40.128768Z","epoch_age_seconds":68848,"freshness":"FRESH","line1":"1 59696U 24086Q   26264.68588112  .00000306  00000+0  20666-4 0  9996","line2":"2 59696  43.0050  33.3172 0001459 275.5367  84.5318 15.27579221134088","mean_motion":15.27579221,"eccentricity":0.0001459,"inclination_deg":43.005,"raan_deg":33.3172,"arg_perigee_deg":275.5367,"mean_anomaly_deg":84.5318,"bstar":2.0666e-5,"rev_number":13408,"period_min":94.266796785658,"perigee_km":482.05038125515,"apogee_km":484.05247603863,"semimajor_km":6861.1884286469,"source":"CELESTRAK","updated_at":"2026-09-22T09:00:49.055050Z"}}}